Location: Exeidioux
(45.6312°N, 1.6819°E)
Time: 14:48:50
(UTC+00:00)

SL-4 R/B - Pass Details

Date: 03 March 2021
Orbit: 428 x 663 km, 51.6° (Epoch: 11 April)

Event Time Altitude Azimuth Distance (km) Brightness Sun altitude
Rises 18:10:10 0° 287° (WNW) 2,524 7.0 -5.5°
Reaches altitude 10° 18:12:33 10° 299° (WNW) 1,611 5.4 -6.0°
Maximum altitude 18:15:46 30° 2° (N) 833 2.9 -6.5°
Drops below altitude 10° 18:18:52 10° 66° (ENE) 1,544 3.7 -7.1°
Enters shadow 18:19:14 - 69° (ENE) 1,678 3.9 -7.1°
